When you browse on this site, cookies collect data to enhance your experience and personalize the content and advertising you see.
Visit our Privacy Policy to learn more. By continuing to use the site, you agree to this use of cookies and data.
  • In Hungary
  • List of Countries
  • For 7 days
  • Water Temperature
  • Satellite Maps
  • Weather Map
  • News
  • Weather Widgets
  • user-avatar
    Login

    Hourly Weather Verhnyaya Uratma

    Today, 21 November, Wednesday

    Time Temperature Precipitation Wind Pressure Humidity
    00:00 -6°C° 0 mm 3 mps 745 mmHg 89%
    01:00 -7°C° 0.1 mm 4 mps 744 mmHg 89%
    02:00 -7°C° 0.1 mm 4 mps 744 mmHg 89%
    03:00 -7°C° 0.1 mm 5 mps 743 mmHg 89%
    04:00 -7°C° 0.1 mm 5 mps 743 mmHg 89%
    05:00 -7°C° 0.1 mm 5 mps 742 mmHg 88%
    06:00 -6°C° 0.1 mm 6 mps 741 mmHg 88%
    07:00 -6°C° 0.4 mm 6 mps 741 mmHg 88%
    08:00 -8°C° 0.4 mm 6 mps 740 mmHg 88%
    09:00 -8°C° 0.4 mm 6 mps 740 mmHg 88%
    10:00 -6°C° 0.2 mm 6 mps 739 mmHg 87%
    11:00 -6°C° 0.2 mm 6 mps 739 mmHg 86%
    12:00 -5°C° 0.2 mm 6 mps 738 mmHg 85%
    13:00 -5°C° 0.2 mm 6 mps 738 mmHg 86%
    14:00 -5°C° 0.2 mm 6 mps 738 mmHg 86%
    15:00 -5°C° 0.2 mm 6 mps 737 mmHg 87%
    16:00 -5°C° 0.1 mm 6 mps 738 mmHg 85%
    17:00 -6°C° 0.1 mm 6 mps 738 mmHg 82%
    18:00 -8°C° 0.1 mm 6 mps 738 mmHg 80%
    19:00 -8°C° 0 mm 6 mps 738 mmHg 80%
    20:00 -8°C° 0 mm 6 mps 738 mmHg 80%
    21:00 -9°C° 0 mm 6 mps 739 mmHg 80%
    22:00 -9°C° 0 mm 6 mps 739 mmHg 81%
    23:00 -10°C° 0 mm 6 mps 739 mmHg 82%

    Tomorrow, 22 November, Thursday

    Time Temperature Precipitation Wind Pressure Humidity
    00:00 -11°C° 0 mm 5 mps 739 mmHg 83%
    01:00 -11°C° 0 mm 5 mps 739 mmHg 85%
    02:00 -11°C° 0 mm 5 mps 739 mmHg 87%
    03:00 -11°C° 0 mm 5 mps 739 mmHg 89%
    04:00 -11°C° 0 mm 5 mps 739 mmHg 89%
    05:00 -10°C° 0 mm 4 mps 739 mmHg 90%
    06:00 -9°C° 0 mm 4 mps 738 mmHg 90%
    07:00 -9°C° 0.1 mm 4 mps 738 mmHg 90%
    08:00 -9°C° 0.1 mm 4 mps 738 mmHg 90%
    09:00 -8°C° 0.1 mm 4 mps 738 mmHg 90%
    10:00 -8°C° 0.3 mm 5 mps 737 mmHg 90%
    11:00 -7°C° 0.3 mm 5 mps 737 mmHg 89%
    12:00 -8°C° 0.3 mm 6 mps 736 mmHg 89%
    13:00 -8°C° 0.2 mm 6 mps 736 mmHg 88%
    14:00 -6°C° 0.2 mm 5 mps 735 mmHg 87%
    15:00 -6°C° 0.2 mm 5 mps 735 mmHg 86%
    16:00 -8°C° 0.2 mm 6 mps 734 mmHg 88%
    17:00 -8°C° 0.2 mm 6 mps 734 mmHg 89%
    18:00 -8°C° 0.2 mm 7 mps 733 mmHg 90%
    19:00 -8°C° 0.4 mm 7 mps 733 mmHg 90%
    20:00 -8°C° 0.4 mm 7 mps 732 mmHg 89%
    21:00 -8°C° 0.4 mm 7 mps 731 mmHg 89%
    22:00 -8°C° 0.4 mm 7 mps 730 mmHg 90%
    23:00 -8°C° 0.4 mm 6 mps 730 mmHg 91%

    Day after tomorrow, 23 November, Friday

    Time Temperature Precipitation Wind Pressure Humidity
    00:00 -9°C° 0.4 mm 6 mps 729 mmHg 92%
    01:00 -8°C° 0.5 mm 6 mps 728 mmHg 92%
    02:00 -8°C° 0.5 mm 6 mps 728 mmHg 92%
    03:00 -8°C° 0.5 mm 6 mps 727 mmHg 92%
    04:00 -8°C° 0.4 mm 6 mps 727 mmHg 92%
    05:00 -9°C° 0.4 mm 6 mps 727 mmHg 91%
    06:00 -9°C° 0.4 mm 6 mps 727 mmHg 91%
    07:00 -11°C° 0.4 mm 7 mps 728 mmHg 89%
    08:00 -12°C° 0.4 mm 9 mps 729 mmHg 87%
    09:00 -13°C° 0.4 mm 10 mps 730 mmHg 86%
    10:00 -14°C° 0.3 mm 10 mps 731 mmHg 86%
    11:00 -14°C° 0.3 mm 10 mps 732 mmHg 86%
    12:00 -14°C° 0.3 mm 10 mps 733 mmHg 85%
    13:00 -14°C° 0.1 mm 9 mps 734 mmHg 84%
    14:00 -14°C° 0.1 mm 9 mps 735 mmHg 83%
    15:00 -14°C° 0.1 mm 9 mps 736 mmHg 82%
    16:00 -15°C° 0 mm 9 mps 738 mmHg 82%
    17:00 -15°C° 0 mm 8 mps 739 mmHg 81%
    18:00 -15°C° 0 mm 8 mps 740 mmHg 81%
    19:00 -15°C° 0 mm 7 mps 741 mmHg 84%
    20:00 -16°C° 0 mm 6 mps 742 mmHg 86%
    21:00 -17°C° 0 mm 5 mps 743 mmHg 89%
    22:00 -17°C° 0 mm 5 mps 743 mmHg 90%
    23:00 -16°C° 0 mm 4 mps 744 mmHg 92%

    24 November, Saturday

    Time Temperature Precipitation Wind Pressure Humidity
    00:00 -17°C° 0 mm 4 mps 744 mmHg 93%
    01:00 -17°C° 0 mm 4 mps 745 mmHg 94%
    02:00 -17°C° 0 mm 4 mps 745 mmHg 94%
    03:00 -16°C° 0 mm 3 mps 745 mmHg 95%
    04:00 -15°C° 0 mm 4 mps 745 mmHg 94%
    05:00 -14°C° 0 mm 4 mps 745 mmHg 93%
    06:00 -12°C° 0 mm 4 mps 745 mmHg 93%
    07:00 -12°C° 0 mm 4 mps 745 mmHg 92%
    08:00 -12°C° 0 mm 5 mps 745 mmHg 91%
    09:00 -12°C° 0 mm 5 mps 745 mmHg 90%
    10:00 -11°C° 0 mm 6 mps 745 mmHg 89%
    11:00 -11°C° 0 mm 6 mps 745 mmHg 88%
    12:00 -11°C° 0 mm 7 mps 745 mmHg 87%
    13:00 -11°C° 0 mm 7 mps 745 mmHg 86%
    14:00 -11°C° 0 mm 7 mps 744 mmHg 86%
    15:00 -10°C° 0 mm 6 mps 744 mmHg 85%
    16:00 -11°C° 0 mm 7 mps 744 mmHg 86%
    17:00 -9°C° 0 mm 7 mps 744 mmHg 86%
    18:00 -9°C° 0 mm 7 mps 744 mmHg 87%
    19:00 -9°C° 0 mm 7 mps 744 mmHg 87%
    20:00 -8°C° 0 mm 7 mps 744 mmHg 87%
    21:00 -8°C° 0 mm 7 mps 744 mmHg 87%
    22:00 -8°C° 0 mm 7 mps 744 mmHg 87%
    23:00 -8°C° 0 mm 7 mps 744 mmHg 87%

    25 November, Sunday

    Time Temperature Precipitation Wind Pressure Humidity
    00:00 -8°C° 0 mm 7 mps 744 mmHg 87%
    01:00 -8°C° 0 mm 7 mps 743 mmHg 87%
    02:00 -8°C° 0 mm 7 mps 743 mmHg 87%
    03:00 -8°C° 0 mm 7 mps 743 mmHg 87%
    04:00 -8°C° 0 mm 7 mps 743 mmHg 87%
    05:00 -8°C° 0 mm 7 mps 743 mmHg 87%
    06:00 -8°C° 0 mm 7 mps 742 mmHg 87%
    07:00 -8°C° 0 mm 7 mps 742 mmHg 87%
    08:00 -8°C° 0 mm 7 mps 742 mmHg 87%
    09:00 -7°C° 0 mm 7 mps 742 mmHg 88%
    10:00 -7°C° 0.1 mm 7 mps 742 mmHg 88%
    11:00 -7°C° 0.1 mm 7 mps 742 mmHg 88%
    12:00 -7°C° 0.1 mm 7 mps 742 mmHg 88%
    13:00 -7°C° 0.3 mm 7 mps 742 mmHg 89%
    14:00 -6°C° 0.3 mm 6 mps 742 mmHg 90%
    15:00 -6°C° 0.3 mm 6 mps 742 mmHg 91%
    16:00 -6°C° 0.2 mm 6 mps 742 mmHg 91%
    17:00 -6°C° 0.2 mm 5 mps 743 mmHg 92%
    18:00 -6°C° 0.2 mm 5 mps 743 mmHg 92%
    19:00 -7°C° 0 mm 4 mps 743 mmHg 92%
    20:00 -7°C° 0 mm 4 mps 744 mmHg 93%
    21:00 -7°C° 0 mm 3 mps 744 mmHg 93%
    22:00 -7°C° 0 mm 3 mps 744 mmHg 93%
    23:00 -8°C° 0 mm 3 mps 744 mmHg 93%

    26 November, Monday

    Time Temperature Precipitation Wind Pressure Humidity
    00:00 -7°C° 0 mm 2 mps 745 mmHg 93%
    01:00 -8°C° 0 mm 2 mps 745 mmHg 93%
    02:00 -8°C° 0 mm 2 mps 745 mmHg 93%
    03:00 -9°C° 0 mm 2 mps 745 mmHg 92%
    04:00 -9°C° 0 mm 2 mps 745 mmHg 92%
    05:00 -9°C° 0 mm 2 mps 745 mmHg 92%
    06:00 -10°C° 0 mm 2 mps 745 mmHg 92%
    07:00 -10°C° 0 mm 2 mps 745 mmHg 92%
    08:00 -9°C° 0 mm 2 mps 745 mmHg 92%
    09:00 -9°C° 0 mm 2 mps 745 mmHg 92%
    10:00 -8°C° 0 mm 2 mps 745 mmHg 93%
    11:00 -7°C° 0 mm 2 mps 744 mmHg 93%
    12:00 -6°C° 0 mm 2 mps 744 mmHg 94%
    13:00 -6°C° 0.3 mm 2 mps 743 mmHg 95%
    14:00 -6°C° 0.3 mm 2 mps 743 mmHg 95%
    15:00 -6°C° 0.3 mm 2 mps 742 mmHg 96%
    16:00 -5°C° 0.6 mm 2 mps 742 mmHg 96%
    17:00 -6°C° 0.6 mm 3 mps 741 mmHg 96%
    18:00 -6°C° 0.6 mm 3 mps 741 mmHg 96%
    19:00 -6°C° 0.3 mm 3 mps 740 mmHg 96%
    20:00 -5°C° 0.3 mm 3 mps 740 mmHg 96%
    21:00 -5°C° 0.3 mm 3 mps 739 mmHg 95%
    22:00 -5°C° 0.3 mm 3 mps 739 mmHg 95%
    23:00 -5°C° 0.3 mm 3 mps 738 mmHg 96%
    Show more